sat.trackr.live / text

‹ back to catalog

STARLINK-32582

NORAD 62033 · 2024-216B

PAYLOAD ACTIVE UNKNOWN

§ Identity

Operator
Country
US
Launch date
2024-11-21
Launch site
AFETR
Launch vehicle
Mass (kg)
RCS (m²)

Purposes: comms

External: N2YO · Heavens-Above · Gunter

§ Orbital elements

Epoch: 2026-09-21T15:30:41.474304Z

Period
94.27 min
Inclination
43.0021°
Eccentricity
0.0001364
Mean motion
15.27584268 rev/d
Perigee alt
482.1 km
Apogee alt
484.0 km
Semi-major
6,861.2 km
B*
3.6465e-4
RAAN
236.6779°
Arg perigee
274.0820°
Mean anomaly
85.9876°
Rev number
10,376

§ Raw data

STARLINK-325821 62033U 24216B   26264.64631336  .00009787  00000+0  36465-3 0  99982 62033  43.0021 236.6779 0001364 274.0820  85.9876 15.27584268103761

JSON: /api/v1/satellites/62033 · /tle

For live sub-satellite position, see the globe view (requires WebGL).

§ Visibility from observer

Set your observer location to see the next 7 days of passes ≥ 10°. The values pass through the URL so the page stays shareable.

No JS? Fill the form by hand. The geolocation button needs JavaScript.